Location: Bannatyne
(13.0833°N, 59.5333°W)
Time: 05:26:51
(UTC+00:00)

Vanguard 3 - Pass Details

Date: 02 February 2020
Orbit: 508 x 3263 km, 33.3° (Epoch: 19 February)

Event Time Altitude Azimuth Distance (km) Brightness Sun altitude
Rises 02:57:25 0° 298° (WNW) 6,811 12.0 -71.6°
Reaches altitude 10° 03:02:34 10° 295° (WNW) 5,475 11.4 -72.9°
Enters shadow 03:04:56 15° 293° (WNW) 4,840 11.1 -73.4°
Maximum altitude 03:17:11 58° 221° (SW) 2,055 - -76.3°
Drops below altitude 10° 03:25:26 10° 143° (SE) 3,206 - -78.2°
Sets 03:27:42 0° 139° (SE) 3,897 - -78.7°
